Miscellaneous Local Product
Issued by NWS Hastings, NE

Home | Current Version | Previous Version | Text Only | Print | Product List | Glossary Off
Versions: 1 2 3 4 5 6 7 8 9 10 11 12 13 14 15 16 17 18 19 20 21 22 23 24 25 26 27 28 29 30 31 32 33 34 35 36 37 38 39 40 41 42 43 44 45 46 47 48 49 50

000
AXUS43 KGID 280202
MISGRI

GID CWA HOURLY WEATHER ROUNDUP
NATIONAL WEATHER SERVICE HASTINGS NE
900 PM CDT FRI MAR 27 2015

NOTE: "FAIR" INDICATES FEW OR NO CLOUDS BELOW 12,000 FEET WITH NO
SIGNIFICANT WEATHER AND/OR OBSTRUCTIONS TO VISIBILITY.

...SOUTH CENTRAL NEBRASKA...

CITY           SKY/WX    TMP DP  RH WIND       PRES   REMARKS
GRAND ISLAND   PTCLDY    36  25  64 SE10      30.03R WCI  28
HASTINGS       MOCLDY    39  25  57 SE10      30.00S WCI  32
KEARNEY        CLOUDY    45  27  49 SE6       29.99R
ORD            MOCLDY    39  26  59 SE7       29.97R WCI  34
YORK           CLOUDY    36  27  69 SE10      30.06R WCI  28
AURORA         PTCLDY    34  26  72 SE10      30.03R WCI  26
LEXINGTON      MOCLDY    50  35  56 S8        29.96S
HOLDREGE       CLOUDY    48  32  53 S9        29.97S
HEBRON         MOCLDY    36  23  59 SE7       30.06R WCI  31

...NEBRASKA PANHANDLE...

CITY           SKY/WX    TMP DP  RH WIND       PRES   REMARKS
CHADRON        PTCLDY    51  34  52 CALM      29.96R
ALLIANCE       PTCLDY    53  32  44 NW7       29.97R
SCOTTSBLUFF    MOCLDY    57  33  40 N8        29.99R
SIDNEY         MOCLDY    52  31  44 NW7       30.02R

...WESTERN AND NORTH CENTRAL NEBRASKA...

CITY           SKY/WX    TMP DP  RH WIND       PRES   REMARKS
VALENTINE      CLEAR     50  34  54 N3        29.91S
AINSWORTH      CLEAR     53  34  50 CALM      29.92R
ONEILL         CLOUDY    37  31  79 NE8G16    29.98R WCI  30
BROKEN BOW     CLOUDY    48  36  63 CALM      29.94S
IMPERIAL       MOCLDY    58  33  39 NW6       29.96R
NORTH PLATTE   CLOUDY    48  35  60 E7        29.96R
MCCOOK         MOCLDY    58  35  42 N7        29.93R

...EASTERN NEBRASKA...

CITY           SKY/WX    TMP DP  RH WIND       PRES   REMARKS
NORFOLK        MOCLDY    33  27  78 SE13      30.02F WCI  24
SO SIOUX CITY  CLOUDY    34  22  61 SE8       30.09F WCI  27
TEKAMAH        CLOUDY    36  22  56 SE9       30.11S WCI  29
COLUMBUS       MOCLDY    36  21  55 SE12      30.07F WCI  27
ALBION         CLOUDY    34  26  71 SE10      30.02S WCI  26
OMAHA EPPLEY   CLOUDY    37  17  44 SE8       30.12F WCI  31
OFFUTT AFB     CLOUDY    37  21  52 S3        30.12S
MILLARD        CLOUDY    37  21  52 SE6       30.12F WCI  32
LINCOLN        CLOUDY    38  23  55 E10       30.11F WCI  31
NEBRASKA CITY  CLOUDY    36  21  55 E5        30.13S WCI  32
BEATRICE       CLOUDY    37  24  59 SE7       30.09S WCI  32
FALLS CITY     CLOUDY    37  24  59 E6        30.14S WCI  32

...NORTHERN KANSAS...

CITY           SKY/WX    TMP DP  RH WIND       PRES   REMARKS
GOODLAND       PTCLDY    51  34  52 S5        30.01R
HILL CITY      PTCLDY    55  35  47 VRB5      29.96S
NORTON         PTCLDY    52  32  46 E7        29.95R
PHILLIPSBURG   CLOUDY    55  36  47 SE7       29.98S
SMITH CENTER   PTCLDY    43  28  56 E10       30.01R
BELOIT         CLEAR     45  25  45 E12       30.03R
HAYS           CLEAR     48  32  53 SE12      29.99F
RUSSELL        CLEAR     48  34  58 S13       29.99F
CONCORDIA      MOCLDY    41  24  51 E5        30.05S
SALINA         MOCLDY    47  27  45 SE9       30.06F
TOPEKA         CLOUDY    41  22  46 E8        30.15F



USA.gov is the U.S. government's official web portal to all federal, state and local government web resources and services.